Year,Month,Day,Hour,Minute,Value (Times are PST for windspeed in km/hr)
2005,11,02,00,00,7.70
2005,11,02,00,01,6.90
2005,11,02,00,02,7.30
2005,11,02,00,03,6.10
2005,11,02,00,04,7.10
2005,11,02,00,05,8.60
2005,11,02,00,06,9.50
2005,11,02,00,07,8.40
2005,11,02,00,08,7.80
2005,11,02,00,09,7.70
2005,11,02,00,10,6.70
2005,11,02,00,11,8.10
2005,11,02,00,12,9.00
2005,11,02,00,13,7.60
2005,11,02,00,14,11.10
2005,11,02,00,15,12.10
2005,11,02,00,16,9.10
2005,11,02,00,17,7.60
2005,11,02,00,18,8.10
2005,11,02,00,19,7.30
2005,11,02,00,20,6.90
2005,11,02,00,21,8.90
2005,11,02,00,22,8.80
2005,11,02,00,23,12.00
2005,11,02,00,24,11.10
2005,11,02,00,25,11.60
2005,11,02,00,26,10.60
2005,11,02,00,27,8.60
2005,11,02,00,28,10.00
2005,11,02,00,29,6.60
2005,11,02,00,30,7.70
2005,11,02,00,31,8.80
2005,11,02,00,32,9.40
2005,11,02,00,33,10.40
2005,11,02,00,34,8.70
2005,11,02,00,35,7.60
2005,11,02,00,36,7.70
2005,11,02,00,37,6.80
2005,11,02,00,38,7.10
2005,11,02,00,39,8.60
2005,11,02,00,40,8.90
2005,11,02,00,41,7.10
2005,11,02,00,42,10.00
2005,11,02,00,43,10.50
2005,11,02,00,44,10.80
2005,11,02,00,45,9.70
2005,11,02,00,46,8.10
2005,11,02,00,47,12.20
2005,11,02,00,48,13.10
2005,11,02,00,49,10.30
2005,11,02,00,50,7.00
2005,11,02,00,51,8.40
2005,11,02,00,52,7.60
2005,11,02,00,53,7.90
2005,11,02,00,54,12.60
2005,11,02,00,55,12.20
2005,11,02,00,56,9.70
2005,11,02,00,57,12.50
2005,11,02,00,58,7.70
2005,11,02,00,59,4.60
2005,11,02,01,00,10.00
2005,11,02,01,01,12.20
2005,11,02,01,02,11.00
2005,11,02,01,03,9.50
2005,11,02,01,04,5.10
2005,11,02,01,05,8.10
2005,11,02,01,06,7.40
2005,11,02,01,07,12.00
2005,11,02,01,08,5.80
2005,11,02,01,09,4.80
2005,11,02,01,10,9.40
2005,11,02,01,11,4.00
2005,11,02,01,12,7.40
2005,11,02,01,13,5.20
2005,11,02,01,14,9.40
2005,11,02,01,15,6.50
2005,11,02,01,16,4.00
2005,11,02,01,17,7.10
2005,11,02,01,18,6.50
2005,11,02,01,19,6.80
2005,11,02,01,20,5.10
2005,11,02,01,21,7.00
2005,11,02,01,22,7.00
2005,11,02,01,23,4.50
2005,11,02,01,24,4.00
2005,11,02,01,25,4.70
2005,11,02,01,26,3.60
2005,11,02,01,27,6.10
2005,11,02,01,28,6.00
2005,11,02,01,29,7.40
2005,11,02,01,30,6.40
2005,11,02,01,31,6.80
2005,11,02,01,32,6.30
2005,11,02,01,33,7.20
2005,11,02,01,34,9.00
2005,11,02,01,35,11.80
2005,11,02,01,36,10.70
2005,11,02,01,37,5.70
2005,11,02,01,38,9.00
2005,11,02,01,39,10.20
2005,11,02,01,40,6.30
2005,11,02,01,41,5.90
2005,11,02,01,42,7.10
2005,11,02,01,43,4.70
2005,11,02,01,44,3.10
2005,11,02,01,45,3.10
2005,11,02,01,46,4.50
2005,11,02,01,47,3.20
2005,11,02,01,48,0.20
2005,11,02,01,49,1.70
2005,11,02,01,50,0.00
2005,11,02,01,51,2.40
2005,11,02,01,52,2.60
2005,11,02,01,53,2.20
2005,11,02,01,54,0.70
2005,11,02,01,55,0.60
2005,11,02,01,56,0.10
2005,11,02,01,57,2.00
2005,11,02,01,58,0.20
2005,11,02,01,59,0.80
2005,11,02,02,00,0.10
2005,11,02,02,01,0.00
2005,11,02,02,02,0.10
2005,11,02,02,03,0.20
2005,11,02,02,04,0.10
2005,11,02,02,05,0.00
2005,11,02,02,06,0.10
2005,11,02,02,07,0.10
2005,11,02,02,08,1.60
2005,11,02,02,09,0.10
2005,11,02,02,10,0.70
2005,11,02,02,11,2.40
2005,11,02,02,12,0.70
2005,11,02,02,13,0.80
2005,11,02,02,14,0.60
2005,11,02,02,15,0.40
2005,11,02,02,16,6.50
2005,11,02,02,17,4.40
2005,11,02,02,18,2.60
2005,11,02,02,19,3.60
2005,11,02,02,20,5.30
2005,11,02,02,21,5.00
2005,11,02,02,22,7.30
2005,11,02,02,23,10.80
2005,11,02,02,24,15.10
2005,11,02,02,25,17.20
2005,11,02,02,26,17.30
2005,11,02,02,27,13.20
2005,11,02,02,28,12.20
2005,11,02,02,29,14.90
2005,11,02,02,30,12.20
2005,11,02,02,31,14.50
2005,11,02,02,32,18.40
2005,11,02,02,33,21.00
2005,11,02,02,34,16.80
2005,11,02,02,35,15.70
2005,11,02,02,36,14.80
2005,11,02,02,37,14.60
2005,11,02,02,38,12.50
2005,11,02,02,39,11.80
2005,11,02,02,40,11.90
2005,11,02,02,41,11.60
2005,11,02,02,42,8.60
2005,11,02,02,43,10.10
2005,11,02,02,44,8.30
2005,11,02,02,45,5.70
2005,11,02,02,46,6.10
2005,11,02,02,47,4.50
2005,11,02,02,48,2.90
2005,11,02,02,49,2.30
2005,11,02,02,50,4.60
2005,11,02,02,51,1.70
2005,11,02,02,52,3.90
2005,11,02,02,53,2.90
2005,11,02,02,54,2.10
2005,11,02,02,55,2.30
2005,11,02,02,56,0.00
2005,11,02,02,57,0.00
2005,11,02,02,58,0.60
2005,11,02,02,59,0.00
2005,11,02,03,00,0.00
2005,11,02,03,01,0.10
2005,11,02,03,02,0.10
2005,11,02,03,03,0.20
2005,11,02,03,04,0.10
2005,11,02,03,05,0.00
2005,11,02,03,06,1.10
2005,11,02,03,07,1.70
2005,11,02,03,08,3.90
2005,11,02,03,09,4.60
2005,11,02,03,10,3.40
2005,11,02,03,11,2.00
2005,11,02,03,12,3.60
2005,11,02,03,13,3.40
2005,11,02,03,14,0.10
2005,11,02,03,15,0.00
2005,11,02,03,16,2.40
2005,11,02,03,17,3.80
2005,11,02,03,18,1.00
2005,11,02,03,19,1.90
2005,11,02,03,20,1.20
2005,11,02,03,21,0.10
2005,11,02,03,22,0.00
2005,11,02,03,23,0.00
2005,11,02,03,24,0.10
2005,11,02,03,25,0.40
2005,11,02,03,26,0.20
2005,11,02,03,27,2.80
2005,11,02,03,28,1.10
2005,11,02,03,29,1.90
2005,11,02,03,30,2.30
2005,11,02,03,31,0.20
2005,11,02,03,32,2.20
2005,11,02,03,33,1.90
2005,11,02,03,34,1.30
2005,11,02,03,35,0.90
2005,11,02,03,36,0.00
2005,11,02,03,37,0.00
2005,11,02,03,38,0.00
2005,11,02,03,39,0.00
2005,11,02,03,40,0.00
2005,11,02,03,41,0.00
2005,11,02,03,42,0.00
2005,11,02,03,43,0.00
2005,11,02,03,44,1.00
2005,11,02,03,45,0.70
2005,11,02,03,46,0.00
2005,11,02,03,47,0.00
2005,11,02,03,48,0.00
2005,11,02,03,49,0.00
2005,11,02,03,50,0.00
2005,11,02,03,51,0.80
2005,11,02,03,52,1.40
2005,11,02,03,53,4.20
2005,11,02,03,54,2.20
2005,11,02,03,55,0.00
2005,11,02,03,56,0.60
2005,11,02,03,57,2.90
2005,11,02,03,58,0.50
2005,11,02,03,59,0.20
2005,11,02,04,00,0.00
2005,11,02,04,01,0.00
2005,11,02,04,02,0.00
2005,11,02,04,03,0.00
2005,11,02,04,04,0.30
2005,11,02,04,05,0.80
2005,11,02,04,06,2.30
2005,11,02,04,07,5.50
2005,11,02,04,08,3.70
2005,11,02,04,09,3.10
2005,11,02,04,10,4.40
2005,11,02,04,11,3.00
2005,11,02,04,12,2.70
2005,11,02,04,13,2.90
2005,11,02,04,14,4.20
2005,11,02,04,15,3.10
2005,11,02,04,16,3.10
2005,11,02,04,17,1.90
2005,11,02,04,18,2.30
2005,11,02,04,19,3.50
2005,11,02,04,20,4.40
2005,11,02,04,21,5.40
2005,11,02,04,22,4.70
2005,11,02,04,23,5.40
2005,11,02,04,24,8.10
2005,11,02,04,25,6.30
2005,11,02,04,26,6.10
2005,11,02,04,27,7.20
2005,11,02,04,28,7.50
2005,11,02,04,29,4.70
2005,11,02,04,30,6.60
2005,11,02,04,31,5.40
2005,11,02,04,32,7.60
2005,11,02,04,33,9.10
2005,11,02,04,34,9.00
2005,11,02,04,35,9.70
2005,11,02,04,36,6.30
2005,11,02,04,37,6.50
2005,11,02,04,38,6.40
2005,11,02,04,39,4.80
2005,11,02,04,40,7.10
2005,11,02,04,41,8.00
2005,11,02,04,42,6.20
2005,11,02,04,43,6.40
2005,11,02,04,44,5.90
2005,11,02,04,45,4.20
2005,11,02,04,46,3.80
2005,11,02,04,47,2.90
2005,11,02,04,48,3.00
2005,11,02,04,49,4.30
2005,11,02,04,50,3.20
2005,11,02,04,51,3.30
2005,11,02,04,52,1.80
2005,11,02,04,53,3.10
2005,11,02,04,54,0.90
2005,11,02,04,55,3.10
2005,11,02,04,56,2.70
2005,11,02,04,57,3.00
2005,11,02,04,58,2.60
2005,11,02,04,59,2.80
2005,11,02,05,00,6.20
2005,11,02,05,01,5.10
2005,11,02,05,02,4.00
2005,11,02,05,03,2.10
2005,11,02,05,04,3.20
2005,11,02,05,05,4.70
2005,11,02,05,06,5.50
2005,11,02,05,07,3.90
2005,11,02,05,08,3.30
2005,11,02,05,09,4.20
2005,11,02,05,10,3.20
2005,11,02,05,11,4.00
2005,11,02,05,12,5.30
2005,11,02,05,13,5.00
2005,11,02,05,14,4.40
2005,11,02,05,15,3.10
2005,11,02,05,16,3.10
2005,11,02,05,17,3.40
2005,11,02,05,18,3.60
2005,11,02,05,19,3.60
2005,11,02,05,20,3.70
2005,11,02,05,21,3.40
2005,11,02,05,22,3.30
2005,11,02,05,23,4.50
2005,11,02,05,24,2.60
2005,11,02,05,25,1.30
2005,11,02,05,26,0.40
2005,11,02,05,27,1.10
2005,11,02,05,28,2.50
2005,11,02,05,29,3.40
2005,11,02,05,30,3.80
2005,11,02,05,31,3.10
2005,11,02,05,32,2.80
2005,11,02,05,33,1.90
2005,11,02,05,34,2.20
2005,11,02,05,35,3.30
2005,11,02,05,36,3.90
2005,11,02,05,37,3.70
2005,11,02,05,38,2.70
2005,11,02,05,39,2.60
2005,11,02,05,40,2.80
2005,11,02,05,41,1.80
2005,11,02,05,42,0.20
2005,11,02,05,43,2.30
2005,11,02,05,44,3.60
2005,11,02,05,45,5.30
2005,11,02,05,46,5.40
2005,11,02,05,47,4.30
2005,11,02,05,48,4.00
2005,11,02,05,49,4.20
2005,11,02,05,50,5.10
2005,11,02,05,51,2.10
2005,11,02,05,52,0.20
2005,11,02,05,53,4.30
2005,11,02,05,54,5.10
2005,11,02,05,55,3.80
2005,11,02,05,56,5.20
2005,11,02,05,57,3.70
2005,11,02,05,58,3.40
2005,11,02,05,59,2.40
2005,11,02,06,00,3.40
2005,11,02,06,01,1.90
2005,11,02,06,02,1.90
2005,11,02,06,03,4.40
2005,11,02,06,04,3.00
2005,11,02,06,05,0.90
2005,11,02,06,06,0.10
2005,11,02,06,07,3.70
2005,11,02,06,08,3.70
2005,11,02,06,09,2.90
2005,11,02,06,10,4.20
2005,11,02,06,11,5.50
2005,11,02,06,12,5.30
2005,11,02,06,13,5.30
2005,11,02,06,14,1.20
2005,11,02,06,15,2.30
2005,11,02,06,16,3.30
2005,11,02,06,17,4.80
2005,11,02,06,18,6.20
2005,11,02,06,19,5.20
2005,11,02,06,20,3.90
2005,11,02,06,21,4.80
2005,11,02,06,22,4.90
2005,11,02,06,23,6.40
2005,11,02,06,24,5.90
2005,11,02,06,25,4.60
2005,11,02,06,26,4.00
2005,11,02,06,27,4.10
2005,11,02,06,28,4.80
2005,11,02,06,29,4.80
2005,11,02,06,30,3.70
2005,11,02,06,31,4.70
2005,11,02,06,32,4.60
2005,11,02,06,33,4.30
2005,11,02,06,34,2.90
2005,11,02,06,35,2.70
2005,11,02,06,36,1.10
2005,11,02,06,37,0.90
2005,11,02,06,38,0.40
2005,11,02,06,39,5.90
2005,11,02,06,40,6.40
2005,11,02,06,41,4.40
2005,11,02,06,42,3.90
2005,11,02,06,43,4.10
2005,11,02,06,44,4.50
2005,11,02,06,45,4.90
2005,11,02,06,46,5.20
2005,11,02,06,47,6.30
2005,11,02,06,48,5.50
2005,11,02,06,49,5.20
2005,11,02,06,50,4.80
2005,11,02,06,51,5.70
2005,11,02,06,52,6.10
2005,11,02,06,53,6.00
2005,11,02,06,54,7.20
2005,11,02,06,55,4.60
2005,11,02,06,56,4.10
2005,11,02,06,57,3.40
2005,11,02,06,58,3.40
2005,11,02,06,59,4.10
2005,11,02,07,00,4.90
2005,11,02,07,01,6.40
2005,11,02,07,02,4.00
2005,11,02,07,03,5.30
2005,11,02,07,04,5.40
2005,11,02,07,05,3.20
2005,11,02,07,06,4.20
2005,11,02,07,07,8.10
2005,11,02,07,08,6.10
2005,11,02,07,09,2.40
2005,11,02,07,10,2.80
2005,11,02,07,11,4.10
2005,11,02,07,12,4.50
2005,11,02,07,13,6.10
2005,11,02,07,14,7.10
2005,11,02,07,15,5.60
2005,11,02,07,16,5.30
2005,11,02,07,17,6.70
2005,11,02,07,18,6.40
2005,11,02,07,19,2.90
2005,11,02,07,20,4.70
2005,11,02,07,21,4.00
2005,11,02,07,22,5.00
2005,11,02,07,23,4.30
2005,11,02,07,24,5.30
2005,11,02,07,25,6.50
2005,11,02,07,26,8.00
2005,11,02,07,27,8.20
2005,11,02,07,28,8.50
2005,11,02,07,29,6.90
2005,11,02,07,30,6.30
2005,11,02,07,31,7.60
2005,11,02,07,32,6.20
2005,11,02,07,33,6.20
2005,11,02,07,34,8.10
2005,11,02,07,35,5.50
2005,11,02,07,36,3.70
2005,11,02,07,37,3.00
2005,11,02,07,38,1.10
2005,11,02,07,39,0.80
2005,11,02,07,40,2.30
2005,11,02,07,41,1.90
2005,11,02,07,42,0.10
2005,11,02,07,43,0.00
2005,11,02,07,44,1.30
2005,11,02,07,45,2.70
2005,11,02,07,46,3.50
2005,11,02,07,47,6.70
2005,11,02,07,48,7.10
2005,11,02,07,49,3.70
2005,11,02,07,50,2.20
2005,11,02,07,51,0.30
2005,11,02,07,52,3.20
2005,11,02,07,53,1.60
2005,11,02,07,54,1.10
2005,11,02,07,55,1.00
2005,11,02,07,56,0.30
2005,11,02,07,57,0.00
2005,11,02,07,58,0.10
2005,11,02,07,59,0.20
2005,11,02,08,00,0.80
2005,11,02,08,01,4.30
2005,11,02,08,02,3.60
2005,11,02,08,03,4.50
2005,11,02,08,04,3.40
2005,11,02,08,05,2.00
2005,11,02,08,06,5.30
2005,11,02,08,07,6.60
2005,11,02,08,08,6.10
2005,11,02,08,09,4.40
2005,11,02,08,10,4.60
2005,11,02,08,11,4.00
2005,11,02,08,12,5.30
2005,11,02,08,13,4.30
2005,11,02,08,14,4.50
2005,11,02,08,15,4.30
2005,11,02,08,16,2.80
2005,11,02,08,17,1.90
2005,11,02,08,18,1.60
2005,11,02,08,19,6.40
2005,11,02,08,20,4.80
2005,11,02,08,21,4.70
2005,11,02,08,22,5.90
2005,11,02,08,23,6.10
2005,11,02,08,24,3.40
2005,11,02,08,25,2.50
2005,11,02,08,26,1.30
2005,11,02,08,27,1.30
2005,11,02,08,28,0.40
2005,11,02,08,29,0.10
2005,11,02,08,30,0.00
2005,11,02,08,31,0.80
2005,11,02,08,32,1.00
2005,11,02,08,33,0.50
2005,11,02,08,34,0.00
2005,11,02,08,35,0.10
2005,11,02,08,36,0.00
2005,11,02,08,37,2.20
2005,11,02,08,38,0.70
2005,11,02,08,39,1.80
2005,11,02,08,40,1.70
2005,11,02,08,41,0.40
2005,11,02,08,42,0.10
2005,11,02,08,43,2.00
2005,11,02,08,44,2.10
2005,11,02,08,45,0.40
2005,11,02,08,46,0.80
2005,11,02,08,47,0.10
2005,11,02,08,48,1.80
2005,11,02,08,49,3.10
2005,11,02,08,50,4.00
2005,11,02,08,51,3.10
2005,11,02,08,52,1.80
2005,11,02,08,53,3.60
2005,11,02,08,54,4.10
2005,11,02,08,55,5.20
2005,11,02,08,56,6.70
2005,11,02,08,57,5.10
2005,11,02,08,58,4.80
2005,11,02,08,59,3.10
2005,11,02,09,00,3.30
2005,11,02,09,01,1.80
2005,11,02,09,02,1.50
2005,11,02,09,03,0.00
2005,11,02,09,04,0.90
2005,11,02,09,05,4.00
2005,11,02,09,06,2.40
2005,11,02,09,07,3.60
2005,11,02,09,08,3.00
2005,11,02,09,09,3.10
2005,11,02,09,10,2.20
2005,11,02,09,11,2.60
2005,11,02,09,12,3.70
2005,11,02,09,13,1.90
2005,11,02,09,14,5.30
2005,11,02,09,15,5.40
2005,11,02,09,16,5.30
2005,11,02,09,17,6.10
2005,11,02,09,18,6.40
2005,11,02,09,19,5.60
2005,11,02,09,20,7.50
2005,11,02,09,21,5.40
2005,11,02,09,22,4.40
2005,11,02,09,23,7.10
2005,11,02,09,24,7.60
2005,11,02,09,25,5.20
2005,11,02,09,26,6.80
2005,11,02,09,27,5.30
2005,11,02,09,28,4.70
2005,11,02,09,29,5.70
2005,11,02,09,30,4.20
2005,11,02,09,31,5.20
2005,11,02,09,32,4.90
2005,11,02,09,33,3.50
2005,11,02,09,34,4.50
2005,11,02,09,35,4.00
2005,11,02,09,36,5.60
2005,11,02,09,37,8.20
2005,11,02,09,38,6.90
2005,11,02,09,39,4.70
2005,11,02,09,40,3.10
2005,11,02,09,41,4.40
2005,11,02,09,42,5.80
2005,11,02,09,43,6.10
2005,11,02,09,44,6.40
2005,11,02,09,45,5.30
2005,11,02,09,46,5.50
2005,11,02,09,47,6.70
2005,11,02,09,48,5.60
2005,11,02,09,49,6.90
2005,11,02,09,50,6.10
2005,11,02,09,51,7.00
2005,11,02,09,52,6.50
2005,11,02,09,53,4.10
2005,11,02,09,54,1.80
2005,11,02,09,55,0.70
2005,11,02,09,56,3.80
2005,11,02,09,57,6.10
2005,11,02,09,58,4.50
2005,11,02,09,59,4.70
2005,11,02,10,00,3.40
2005,11,02,10,01,2.70
2005,11,02,10,02,1.60
2005,11,02,10,03,0.00
2005,11,02,10,04,1.50
2005,11,02,10,05,0.10
2005,11,02,10,06,0.30
2005,11,02,10,07,1.10
2005,11,02,10,08,0.00
2005,11,02,10,09,1.70
2005,11,02,10,10,4.80
2005,11,02,10,11,5.20
2005,11,02,10,12,6.00
2005,11,02,10,13,4.00
2005,11,02,10,14,5.40
2005,11,02,10,15,4.10
2005,11,02,10,16,7.00
2005,11,02,10,17,5.40
2005,11,02,10,18,6.10
2005,11,02,10,19,4.10
2005,11,02,10,20,0.90
2005,11,02,10,21,4.30
2005,11,02,10,22,7.10
2005,11,02,10,23,6.40
2005,11,02,10,24,4.90
2005,11,02,10,25,5.10
2005,11,02,10,26,3.80
2005,11,02,10,27,4.00
2005,11,02,10,28,5.40
2005,11,02,10,29,3.10
2005,11,02,10,30,3.80
2005,11,02,10,31,5.00
2005,11,02,10,32,0.90
2005,11,02,10,33,1.20
2005,11,02,10,34,4.00
2005,11,02,10,35,3.40
2005,11,02,10,36,1.80
2005,11,02,10,37,1.70
2005,11,02,10,38,4.40
2005,11,02,10,39,6.40
2005,11,02,10,40,2.90
2005,11,02,10,41,3.40
2005,11,02,10,42,4.70
2005,11,02,10,43,4.40
2005,11,02,10,44,4.50
2005,11,02,10,45,3.30
2005,11,02,10,46,4.30
2005,11,02,10,47,5.80
2005,11,02,10,48,4.40
2005,11,02,10,49,3.50
2005,11,02,10,50,1.30
2005,11,02,10,51,0.40
2005,11,02,10,52,0.30
2005,11,02,10,53,1.50
2005,11,02,10,54,2.10
2005,11,02,10,55,2.70
2005,11,02,10,56,5.10
2005,11,02,10,57,5.40
2005,11,02,10,58,6.80
2005,11,02,10,59,6.30
2005,11,02,11,00,4.30
2005,11,02,11,01,3.70
2005,11,02,11,02,3.30
2005,11,02,11,03,2.90
2005,11,02,11,04,5.50
2005,11,02,11,05,5.90
2005,11,02,11,06,4.30
2005,11,02,11,07,6.30
2005,11,02,11,08,2.70
2005,11,02,11,09,2.10
2005,11,02,11,10,5.50
2005,11,02,11,11,7.80
2005,11,02,11,12,7.60
2005,11,02,11,13,9.40
2005,11,02,11,14,10.80
2005,11,02,11,15,9.30
2005,11,02,11,16,9.10
2005,11,02,11,17,6.90
2005,11,02,11,18,6.70
2005,11,02,11,19,8.10
2005,11,02,11,20,7.10
2005,11,02,11,21,8.60
2005,11,02,11,22,6.10
2005,11,02,11,23,5.40
2005,11,02,11,24,4.70
2005,11,02,11,25,5.90
2005,11,02,11,26,4.00
2005,11,02,11,27,8.40
2005,11,02,11,28,9.70
2005,11,02,11,29,7.80
2005,11,02,11,30,7.00
2005,11,02,11,31,8.20
2005,11,02,11,32,9.50
2005,11,02,11,33,6.20
2005,11,02,11,34,6.00
2005,11,02,11,35,7.60
2005,11,02,11,36,9.40
2005,11,02,11,37,8.70
2005,11,02,11,38,6.00
2005,11,02,11,39,8.80
2005,11,02,11,40,6.40
2005,11,02,11,41,9.70
2005,11,02,11,42,6.50
2005,11,02,11,43,6.70
2005,11,02,11,44,10.20
2005,11,02,11,45,8.50
2005,11,02,11,46,9.80
2005,11,02,11,47,9.30
2005,11,02,11,48,7.40
2005,11,02,11,49,4.80
2005,11,02,11,50,5.90
2005,11,02,11,51,7.20
2005,11,02,11,52,7.10
2005,11,02,11,53,7.30
2005,11,02,11,54,6.30
2005,11,02,11,55,5.10
2005,11,02,11,56,6.70
2005,11,02,11,57,7.50
2005,11,02,11,58,7.40
2005,11,02,11,59,7.50
2005,11,02,12,00,6.00
2005,11,02,12,01,5.90
2005,11,02,12,02,5.20
2005,11,02,12,03,8.20
2005,11,02,12,04,4.90
2005,11,02,12,05,5.00
2005,11,02,12,06,6.10
2005,11,02,12,07,3.90
2005,11,02,12,08,5.00
2005,11,02,12,09,5.80
2005,11,02,12,10,7.60
2005,11,02,12,11,6.20
2005,11,02,12,12,7.10
2005,11,02,12,13,5.20
2005,11,02,12,14,7.80
2005,11,02,12,15,7.40
2005,11,02,12,16,4.40
2005,11,02,12,17,7.50
2005,11,02,12,18,7.50
2005,11,02,12,19,8.40
2005,11,02,12,20,9.20
2005,11,02,12,21,9.20
2005,11,02,12,22,8.60
2005,11,02,12,23,9.60
2005,11,02,12,24,8.10
2005,11,02,12,25,8.70
2005,11,02,12,26,6.20
2005,11,02,12,27,6.70
2005,11,02,12,28,6.20
2005,11,02,12,29,6.20
2005,11,02,12,30,6.00
2005,11,02,12,31,5.10
2005,11,02,12,32,6.30
2005,11,02,12,33,9.10
2005,11,02,12,34,9.10
2005,11,02,12,35,11.00
2005,11,02,12,36,8.70
2005,11,02,12,37,8.30
2005,11,02,12,38,9.30
2005,11,02,12,39,7.80
2005,11,02,12,40,7.20
2005,11,02,12,41,7.80
2005,11,02,12,42,8.50
2005,11,02,12,43,7.60
2005,11,02,12,44,7.80
2005,11,02,12,45,7.40
2005,11,02,12,46,9.00
2005,11,02,12,47,7.40
2005,11,02,12,48,6.90
2005,11,02,12,49,5.90
2005,11,02,12,50,8.00
2005,11,02,12,51,5.70
2005,11,02,12,52,6.90
2005,11,02,12,53,7.30
2005,11,02,12,54,8.80
2005,11,02,12,55,8.20
2005,11,02,12,56,6.00
2005,11,02,12,57,9.40
2005,11,02,12,58,6.70
2005,11,02,12,59,6.40
2005,11,02,13,00,11.10
2005,11,02,13,01,7.70
2005,11,02,13,02,5.80
2005,11,02,13,03,4.70
2005,11,02,13,04,4.50
2005,11,02,13,05,7.90
2005,11,02,13,06,6.50
2005,11,02,13,07,10.10
2005,11,02,13,08,8.00
2005,11,02,13,09,4.90
2005,11,02,13,10,5.60
2005,11,02,13,11,7.70
2005,11,02,13,12,8.90
2005,11,02,13,13,5.00
2005,11,02,13,14,4.40
2005,11,02,13,15,6.00
2005,11,02,13,16,7.80
2005,11,02,13,17,7.40
2005,11,02,13,18,5.20
2005,11,02,13,19,5.10
2005,11,02,13,20,7.40
2005,11,02,13,21,6.90
2005,11,02,13,22,8.40
2005,11,02,13,23,9.10
2005,11,02,13,24,8.60
2005,11,02,13,25,9.40
2005,11,02,13,26,7.50
2005,11,02,13,27,4.60
2005,11,02,13,28,7.40
2005,11,02,13,29,8.30
2005,11,02,13,30,7.90
2005,11,02,13,31,6.10
2005,11,02,13,32,6.70
2005,11,02,13,33,6.10
2005,11,02,13,34,8.30
2005,11,02,13,35,5.70
2005,11,02,13,36,6.10
2005,11,02,13,37,5.90
2005,11,02,13,38,8.40
2005,11,02,13,39,8.50
2005,11,02,13,40,7.10
2005,11,02,13,41,6.20
2005,11,02,13,42,3.10
2005,11,02,13,43,5.30
2005,11,02,13,44,6.90
2005,11,02,13,45,6.80
2005,11,02,13,46,8.50
2005,11,02,13,47,5.20
2005,11,02,13,48,4.00
2005,11,02,13,49,4.40
2005,11,02,13,50,6.40
2005,11,02,13,51,6.10
2005,11,02,13,52,9.70
2005,11,02,13,53,10.30
2005,11,02,13,54,6.90
2005,11,02,13,55,7.00
2005,11,02,13,56,6.80
2005,11,02,13,57,8.50
2005,11,02,13,58,6.60
2005,11,02,13,59,5.90
2005,11,02,14,00,3.80
2005,11,02,14,01,3.70
2005,11,02,14,02,5.60
2005,11,02,14,03,3.40
2005,11,02,14,04,7.10
2005,11,02,14,05,4.50
2005,11,02,14,06,4.40
2005,11,02,14,07,8.20
2005,11,02,14,08,6.10
2005,11,02,14,09,6.00
2005,11,02,14,10,6.20
2005,11,02,14,11,5.60
2005,11,02,14,12,4.40
2005,11,02,14,13,3.50
2005,11,02,14,14,2.70
2005,11,02,14,15,4.30
2005,11,02,14,16,6.00
2005,11,02,14,17,7.30
2005,11,02,14,18,6.40
2005,11,02,14,19,6.30
2005,11,02,14,20,6.80
2005,11,02,14,21,7.40
2005,11,02,14,22,7.90
2005,11,02,14,23,8.90
2005,11,02,14,24,11.70
2005,11,02,14,25,7.50
2005,11,02,14,26,8.00
2005,11,02,14,27,10.60
2005,11,02,14,28,10.10
2005,11,02,14,29,7.90
2005,11,02,14,30,8.20
2005,11,02,14,31,8.30
2005,11,02,14,32,9.20
2005,11,02,14,33,7.10
2005,11,02,14,34,5.30
2005,11,02,14,35,3.70
2005,11,02,14,36,6.10
2005,11,02,14,37,6.40
2005,11,02,14,38,6.00
2005,11,02,14,39,6.70
2005,11,02,14,40,5.50
2005,11,02,14,41,5.20
2005,11,02,14,42,6.90
2005,11,02,14,43,6.70
2005,11,02,14,44,7.80
2005,11,02,14,45,6.20
2005,11,02,14,46,8.80
2005,11,02,14,47,8.40
2005,11,02,14,48,9.50
2005,11,02,14,49,8.60
2005,11,02,14,50,9.70
2005,11,02,14,51,8.50
2005,11,02,14,52,9.40
2005,11,02,14,53,7.80
2005,11,02,14,54,7.20
2005,11,02,14,55,10.40
2005,11,02,14,56,9.40
2005,11,02,14,57,7.40
2005,11,02,14,58,7.70
2005,11,02,14,59,8.90
2005,11,02,15,00,8.70
2005,11,02,15,01,8.60
2005,11,02,15,02,8.20
2005,11,02,15,03,7.80
2005,11,02,15,04,7.10
2005,11,02,15,05,7.30
2005,11,02,15,06,7.10
2005,11,02,15,07,6.30
2005,11,02,15,08,9.20
2005,11,02,15,09,7.70
2005,11,02,15,10,6.40
2005,11,02,15,11,8.80
2005,11,02,15,12,6.80
2005,11,02,15,13,6.70
2005,11,02,15,14,5.30
2005,11,02,15,15,5.80
2005,11,02,15,16,5.00
2005,11,02,15,17,5.70
2005,11,02,15,18,7.10
2005,11,02,15,19,6.60
2005,11,02,15,20,5.10
2005,11,02,15,21,4.10
2005,11,02,15,22,4.30
2005,11,02,15,23,5.20
2005,11,02,15,24,5.80
2005,11,02,15,25,4.80
2005,11,02,15,26,7.90
2005,11,02,15,27,7.80
2005,11,02,15,28,6.00
2005,11,02,15,29,4.50
2005,11,02,15,30,5.80
2005,11,02,15,31,4.80
2005,11,02,15,32,5.10
2005,11,02,15,33,5.40
2005,11,02,15,34,6.00
2005,11,02,15,35,4.60
2005,11,02,15,36,3.60
2005,11,02,15,37,4.20
2005,11,02,15,38,2.10
2005,11,02,15,39,1.50
2005,11,02,15,40,4.30
2005,11,02,15,41,4.50
2005,11,02,15,42,3.40
2005,11,02,15,43,3.20
2005,11,02,15,44,3.50
2005,11,02,15,45,3.60
2005,11,02,15,46,2.10
2005,11,02,15,47,1.00
2005,11,02,15,48,2.40
2005,11,02,15,49,1.80
2005,11,02,15,50,1.50
2005,11,02,15,51,0.20
2005,11,02,15,52,0.00
2005,11,02,15,53,0.00
2005,11,02,15,54,1.30
2005,11,02,15,55,0.40
2005,11,02,15,56,0.00
2005,11,02,15,57,0.00
2005,11,02,15,58,0.00
2005,11,02,15,59,0.10
2005,11,02,16,00,0.00
2005,11,02,16,01,0.00
2005,11,02,16,02,0.00
2005,11,02,16,03,0.00
2005,11,02,16,04,0.30
2005,11,02,16,05,2.10
2005,11,02,16,06,1.00
2005,11,02,16,07,0.00
2005,11,02,16,08,0.00
2005,11,02,16,09,0.00
2005,11,02,16,10,0.00
2005,11,02,16,11,0.00
2005,11,02,16,12,0.00
2005,11,02,16,13,0.00
2005,11,02,16,14,0.00
2005,11,02,16,15,0.00
2005,11,02,16,16,0.00
2005,11,02,16,17,0.00
2005,11,02,16,18,0.00
2005,11,02,16,19,0.00
2005,11,02,16,20,0.00
2005,11,02,16,21,0.00
2005,11,02,16,22,0.00
2005,11,02,16,23,0.00
2005,11,02,16,24,0.00
2005,11,02,16,25,0.40
2005,11,02,16,26,0.50
2005,11,02,16,27,0.20
2005,11,02,16,28,2.00
2005,11,02,16,29,1.50
2005,11,02,16,30,0.50
2005,11,02,16,31,0.10
2005,11,02,16,32,0.10
2005,11,02,16,33,0.50
2005,11,02,16,34,0.40
2005,11,02,16,35,0.10
2005,11,02,16,36,0.00
2005,11,02,16,37,0.20
2005,11,02,16,38,1.20
2005,11,02,16,39,0.70
2005,11,02,16,40,0.00
2005,11,02,16,41,0.00
2005,11,02,16,42,0.20
2005,11,02,16,43,0.00
2005,11,02,16,44,1.70
2005,11,02,16,45,2.90
2005,11,02,16,46,3.70
2005,11,02,16,47,4.50
2005,11,02,16,48,4.80
2005,11,02,16,49,4.90
2005,11,02,16,50,2.40
2005,11,02,16,51,1.90
2005,11,02,16,52,1.40
2005,11,02,16,53,5.60
2005,11,02,16,54,5.40
2005,11,02,16,55,2.80
2005,11,02,16,56,3.80
2005,11,02,16,57,0.70
2005,11,02,16,58,3.40
2005,11,02,16,59,3.90
2005,11,02,17,00,5.80
2005,11,02,17,01,6.50
2005,11,02,17,02,7.60
2005,11,02,17,03,6.40
2005,11,02,17,04,4.10
2005,11,02,17,05,4.90
2005,11,02,17,06,6.00
2005,11,02,17,07,4.50
2005,11,02,17,08,7.80
2005,11,02,17,09,5.70
2005,11,02,17,10,6.70
2005,11,02,17,11,7.00
2005,11,02,17,12,4.30
2005,11,02,17,13,6.00
2005,11,02,17,14,2.30
2005,11,02,17,15,4.70
2005,11,02,17,16,3.90
2005,11,02,17,17,4.50
2005,11,02,17,18,5.10
2005,11,02,17,19,5.80
2005,11,02,17,20,5.20
2005,11,02,17,21,6.70
2005,11,02,17,22,6.90
2005,11,02,17,23,8.10
2005,11,02,17,24,6.70
2005,11,02,17,25,6.70
2005,11,02,17,26,5.50
2005,11,02,17,27,6.90
2005,11,02,17,28,6.40
2005,11,02,17,29,5.40
2005,11,02,17,30,7.10
2005,11,02,17,31,6.60
2005,11,02,17,32,5.00
2005,11,02,17,33,5.50
2005,11,02,17,34,4.80
2005,11,02,17,35,5.30
2005,11,02,17,36,4.10
2005,11,02,17,37,5.30
2005,11,02,17,38,4.40
2005,11,02,17,39,3.60
2005,11,02,17,40,5.00
2005,11,02,17,41,3.00
2005,11,02,17,42,2.10
2005,11,02,17,43,4.30
2005,11,02,17,44,5.90
2005,11,02,17,45,5.00
2005,11,02,17,46,5.20
2005,11,02,17,47,5.00
2005,11,02,17,48,6.60
2005,11,02,17,49,6.00
2005,11,02,17,50,4.70
2005,11,02,17,51,3.40
2005,11,02,17,52,3.50
2005,11,02,17,53,3.60
2005,11,02,17,54,1.50
2005,11,02,17,55,1.70
2005,11,02,17,56,3.40
2005,11,02,17,57,1.20
2005,11,02,17,58,1.50
2005,11,02,17,59,1.30
2005,11,02,18,00,2.70
2005,11,02,18,01,3.80
2005,11,02,18,02,3.60
2005,11,02,18,03,5.00
2005,11,02,18,04,6.60